UFO 2 (USA 95)

Last updated on Wed Sep 09 2026 00:02:57 GMT+0000 (Coordinated Universal Time)

1 22787U 93056A 26250.98708339 .00000112 00000+0 00000+0 0 9993 2 22787 11.9250 3.0821 0001866 246.1594 121.8475 1.00276123119384
UTC large
Height (km)
Speed (km/s)
/
Latitude / Longitude
Inclination (degrees)
Orbital Period (minutes)
Azimuth
Elevation
Range (km)
Doppler Factor

Next 0 passes for location: London (51.5072 / 0.1276)

No passes found over London.
UFO 2 (USA 95)